Location: Kra?nica
(53.4833°N, 14.6167°E)
Time: 16:46:14
(UTC+00:00)

COSMOS 2441 - Pass Details

Date: 23 May 2024
Orbit: 705 x 730 km, 98.2° (Epoch: 12 June)

Event Time Altitude Azimuth Distance (km) Brightness Sun altitude
Rises 01:26:58 0° 15° (NNE) 3,120 9.2 -9.2°
Reaches altitude 10° 01:29:14 10° 16° (NNE) 2,194 8.2 -9.0°
Maximum altitude 01:34:04 84° 105° (ESE) 718 4.4 -8.6°
Drops below altitude 10° 01:38:50 10° 194° (SSW) 2,172 6.3 -8.2°
Enters shadow 01:39:15 - 195° (SSW) 2,342 6.4 -8.1°
